DLH2EL EDSB-EDDF

Flight info

Callsign DLH2EL
Flight time N/A
Altitude 17000
Route GAGSI1Y/03 GAGSI Y712 KOVAN T163 SPESA SPESA4C
Aircraft A320/M-SDE3FGHIRWY/LB1

Departure

Time 2026-04-30 19:32
Airport Karlsruhe Baden-Baden Airport (EDSB)

Arrival

Time N/A
Airport Frankfurt Main Airport (EDDF)
Time Latitude Longitude Altitude Speed Heading
2026-04-30 19:16 48.78016 8.08779 405 ft 0 kts 159°
2026-04-30 19:24 48.77990 8.08665 410 ft 15 kts 223°
2026-04-30 19:25 48.77767 8.08304 412 ft 18 kts 306°
2026-04-30 19:26 48.77632 8.08054 410 ft 17 kts 210°
2026-04-30 19:26 48.77345 8.07790 410 ft 15 kts 212°
2026-04-30 19:26 48.77314 8.07683 408 ft 12 kts 301°
2026-04-30 19:27 48.77396 8.07544 413 ft 7 kts 25°
2026-04-30 19:27 48.77531 8.07670 413 ft 49 kts 31°
2026-04-30 19:28 48.77750 8.07877 412 ft 34 kts 32°
2026-04-30 19:28 48.77766 8.08179 410 ft 23 kts 205°
2026-04-30 19:29 48.77501 8.07943 411 ft 24 kts 214°
2026-04-30 19:29 48.77324 8.07770 391 ft 19 kts 215°
2026-04-30 19:30 48.77336 8.07624 396 ft 15 kts 302°
2026-04-30 19:30 48.77354 8.07507 396 ft 0 kts 211°
2026-04-30 19:31 48.77345 8.07495 416 ft 5 kts 45°
2026-04-30 19:31 48.77358 8.07509 401 ft 0 kts 33°
2026-04-30 19:31 48.78084 8.08189 411 ft 126 kts 32°
2026-04-30 19:32 48.78919 8.08988 765 ft 145 kts 38°
2026-04-30 19:32 48.79547 8.10115 1570 ft 138 kts 69°
2026-04-30 19:32 48.80024 8.11485 2065 ft 159 kts 59°
2026-04-30 19:32 48.80727 8.12931 2460 ft 181 kts 58°
2026-04-30 19:33 48.81507 8.14567 2830 ft 200 kts 59°
2026-04-30 19:33 48.82369 8.16392 3210 ft 225 kts 59°
2026-04-30 19:33 48.83325 8.18406 3854 ft 241 kts 59°
2026-04-30 19:33 48.84313 8.20468 4696 ft 249 kts 58°
2026-04-30 19:34 48.85351 8.22630 5520 ft 256 kts 57°
2026-04-30 19:34 48.86412 8.24840 6379 ft 262 kts 56°
2026-04-30 19:34 48.88599 8.29403 8117 ft 270 kts 56°
2026-04-30 19:35 48.89711 8.31731 8994 ft 274 kts 56°
2026-04-30 19:35 48.90824 8.34068 9868 ft 277 kts 56°
2026-04-30 19:35 48.91967 8.36476 10567 ft 288 kts 56°
2026-04-30 19:35 48.93182 8.39048 10848 ft 311 kts 56°
2026-04-30 19:36 48.94500 8.41836 11089 ft 334 kts 56°
2026-04-30 19:36 48.95887 8.44767 11613 ft 344 kts 56°
2026-04-30 19:36 48.98720 8.50730 13093 ft 352 kts 56°
2026-04-30 19:37 49.00162 8.53772 13866 ft 355 kts 56°
2026-04-30 19:37 49.01614 8.56844 14561 ft 358 kts 56°
2026-04-30 19:37 49.03103 8.60007 15228 ft 361 kts 55°
2026-04-30 19:37 49.04549 8.63061 15866 ft 364 kts 53°
2026-04-30 19:38 49.08514 8.67776 17093 ft 373 kts 33°
2026-04-30 19:38 49.11238 8.70371 17285 ft 381 kts 33°
2026-04-30 19:38 49.13519 8.72567 17317 ft 398 kts 34°
2026-04-30 19:38 49.15881 8.74855 17322 ft 405 kts 34°
2026-04-30 19:39 49.18246 8.77148 17326 ft 406 kts 34°
2026-04-30 19:39 49.20637 8.79465 17329 ft 407 kts 34°
2026-04-30 19:39 49.24124 8.82837 17339 ft 406 kts 33°
2026-04-30 19:39 49.28829 8.87391 17345 ft 406 kts 34°
2026-04-30 19:40 49.31600 8.90081 17216 ft 400 kts 34°
2026-04-30 19:40 49.33925 8.92339 16890 ft 389 kts 34°
2026-04-30 19:40 49.36193 8.94543 16558 ft 384 kts 34°
2026-04-30 19:40 49.38446 8.96737 16229 ft 382 kts 34°
2026-04-30 19:41 49.40682 8.98918 15913 ft 380 kts 34°
2026-04-30 19:41 49.42915 9.01105 15585 ft 378 kts 34°
2026-04-30 19:41 49.45106 9.03250 15270 ft 377 kts 34°
2026-04-30 19:41 49.47317 9.05416 14954 ft 376 kts 34°
2026-04-30 19:42 49.49524 9.07578 14650 ft 374 kts 34°
2026-04-30 19:42 49.51724 9.09735 14347 ft 373 kts 34°
2026-04-30 19:42 49.53913 9.11886 14022 ft 372 kts 34°
2026-04-30 19:42 49.56092 9.14030 13681 ft 370 kts 34°
2026-04-30 19:43 49.58241 9.16142 13352 ft 369 kts 34°
2026-04-30 19:43 49.60403 9.18272 13014 ft 367 kts 34°
2026-04-30 19:43 49.62554 9.20395 12676 ft 365 kts 34°
2026-04-30 19:44 49.66804 9.24600 12023 ft 363 kts 35°
2026-04-30 19:44 49.68924 9.26701 11716 ft 361 kts 35°
2026-04-30 19:44 49.71063 9.28748 11465 ft 361 kts 31°
2026-04-30 19:44 49.73352 9.30377 11336 ft 362 kts 23°
2026-04-30 19:45 49.75792 9.31477 11359 ft 365 kts 15°
2026-04-30 19:45 49.78254 9.32249 11363 ft 365 kts 14°
2026-04-30 19:45 49.80771 9.32731 11366 ft 370 kts
2026-04-30 19:45 49.83345 9.32030 11365 ft 380 kts 343°
2026-04-30 19:46 49.85666 9.30027 11364 ft 387 kts 323°
2026-04-30 19:46 49.87452 9.26916 11365 ft 392 kts 303°
2026-04-30 19:46 49.88534 9.23018 11147 ft 394 kts 288°
2026-04-30 19:46 49.89305 9.18994 10882 ft 393 kts 287°
2026-04-30 19:47 49.90066 9.14924 10611 ft 392 kts 287°
2026-04-30 19:47 49.90577 9.12164 10432 ft 391 kts 287°
2026-04-30 19:47 49.91573 9.06800 10065 ft 390 kts 287°
2026-04-30 19:47 49.92325 9.02801 9779 ft 388 kts 287°
2026-04-30 19:48 49.93073 8.98762 9493 ft 386 kts 283°
2026-04-30 19:48 49.93303 8.94634 9206 ft 383 kts 265°
2026-04-30 19:48 49.92950 8.90533 8919 ft 381 kts 261°
2026-04-30 19:48 49.92555 8.86462 8637 ft 379 kts 260°
2026-04-30 19:49 49.92160 8.82484 8368 ft 377 kts 260°
2026-04-30 19:49 49.91371 8.74555 7599 ft 361 kts 260°
2026-04-30 19:49 49.90997 8.70758 7370 ft 348 kts 260°
2026-04-30 19:50 49.90640 8.67155 7128 ft 336 kts 260°
2026-04-30 19:50 49.90288 8.63624 6891 ft 325 kts 260°
2026-04-30 19:50 49.89947 8.60221 6615 ft 309 kts 259°
2026-04-30 19:50 49.89623 8.56990 6253 ft 299 kts 259°
2026-04-30 19:51 49.89300 8.53804 5895 ft 297 kts 259°
2026-04-30 19:51 49.88987 8.50718 5547 ft 288 kts 259°
2026-04-30 19:51 49.88677 8.47654 5194 ft 286 kts 258°
2026-04-30 19:51 49.88380 8.44608 4834 ft 286 kts 262°
2026-04-30 19:52 49.88542 8.41558 4481 ft 279 kts 281°
2026-04-30 19:52 49.88981 8.38643 4123 ft 276 kts 284°
2026-04-30 19:52 49.89429 8.35794 3776 ft 274 kts 284°